Location: Unspecified
(35.6961°N, 0.0000°E)
Time: 03:21:47
(UTC+00:00)

Vanguard 2 Rocket - Pass Details

Date: 31 May 2019
Orbit: 555 x 3326 km, 32.9° (Epoch: 24 June)

Event Time Altitude Azimuth Distance (km) Brightness Sun altitude
Rises 01:30:39 0° 215° (SW) 6,507 - -28.4°
Reaches altitude 10° 01:34:58 10° 209° (SSW) 5,768 - -28.0°
Exits shadow 01:44:12 33° 186° (S) 4,536 9.9 -27.2°
Maximum altitude 01:52:14 44° 145° (SE) 4,135 9.9 -26.4°
Drops below altitude 10° 02:09:29 10° 82° (E) 5,811 11.5 -24.5°
Sets 02:13:47 0° 76° (ENE) 6,562 12.0 -24.0°
